Volk, WI

2:43 AM CDT on May 25, 2018 (GMT -0500)
Volk

Weather History for KVOK - December, 2011

Change the Weather History Date:

Thursday, December 1, 2011

  Actual Average Record
Temperature  
Mean Temperature 29 °F -  
Max Temperature 37 °F 36 °F 60 °F (1998)
Min Temperature 17 °F 24 °F -4 °F (2014)
Degree Days  
Heating Degree Days 36    
Moisture  
Dew Point 27 °F    
Average Humidity 84    
Maximum Humidity 100    
Minimum Humidity 38    
Precipitation  
Precipitation 0.04 in - - ()
Sea Level Pressure  
Sea Level Pressure 30.27 in    
Wind  
Wind Speed 5 mph (NW)    
Max Wind Speed 15 mph    
Max Gust Speed -    
Visibility 8 miles    
Events Snow    
Averages and records for this station are not official NWS values.
T = Trace of Precipitation, MM = Missing Value Source: NWS Daily Summary

Daily Weather History Graph

Daily Weather History Graph

Search for Another Location

Airport or City:

Astronomy

Dec. 01, 2011 Rise Set
Actual Time 7:15 AM CST 4:24 PM CST
Civil Twilight 6:42 AM CST 4:56 PM CST
Nautical Twilight 6:07 AM CST 5:32 PM CST
Astronomical Twilight 5:32 AM CST 6:07 PM CST
Moon 11:52 AM CST (12/1) 11:32 PM CST (12/1)
Length of Visible Light 10h 14m
Length of Day
9h 09m
Waxing Crescent, 43% of the Moon is Illuminated
Dec 1
Waxing Crescent
Dec 2
First Quarter
Dec 10
Full
Dec 17
Last Quarter
Dec 24
New

Hourly Weather History & Observations

Time (CST) Temp. Windchill Dew Point Humidity Pressure Visibility Wind Dir Wind Speed Gust Speed Precip Events Conditions
12:55 AM 37.6 °F 33.1 °F 13.6 °F 38% 30.09 in 10.0 mi SSW 5.8 mph - N/A   Overcast
1:55 AM 35.8 °F - 14.0 °F 41% 30.10 in 10.0 mi Calm Calm - N/A   Scattered Clouds
2:55 AM 36.0 °F 33.3 °F 15.3 °F 43% 30.12 in 10.0 mi WSW 3.5 mph - N/A   Mostly Cloudy
3:55 AM 32.4 °F - 19.4 °F 59% 30.12 in 10.0 mi Calm Calm - N/A   Scattered Clouds
4:55 AM 31.8 °F - 21.9 °F 67% 30.14 in 10.0 mi Calm Calm - N/A   Clear
5:55 AM 31.8 °F - 21.9 °F 67% 30.17 in 10.0 mi Calm Calm - N/A   Scattered Clouds
6:55 AM 32.0 °F - 23.0 °F 69% 30.19 in 10.0 mi Calm Calm - N/A   Overcast
7:55 AM 33.8 °F 27.7 °F 21.2 °F 60% 30.22 in 10.0 mi North 6.9 mph - N/A   Overcast
8:23 AM 35.6 °F 29.9 °F 24.8 °F 65% 30.20 in 10.0 mi North 6.9 mph - N/A   Overcast
8:40 AM 33.8 °F 25.8 °F 26.6 °F 75% 30.20 in 3.0 mi North 10.4 mph - N/A Snow Light Snow
8:55 AM 33.8 °F 27.7 °F 32.0 °F 93% 30.24 in 2.0 mi North 6.9 mph - N/A Snow Light Snow
9:39 AM 33.8 °F 29.6 °F 33.8 °F 100% 30.22 in 1.0 mi NNW 4.6 mph - N/A Snow Light Snow
9:55 AM 33.8 °F 29.6 °F 33.8 °F 100% 30.26 in 1.2 mi NW 4.6 mph - N/A Snow Light Snow
10:55 AM 33.8 °F 28.6 °F 33.8 °F 100% 30.27 in 2.2 mi NNW 5.8 mph - N/A Snow Light Snow
11:55 AM 35.6 °F 29.9 °F 35.6 °F 100% 30.27 in 2.5 mi North 6.9 mph - N/A Snow Light Snow
12:25 PM 35.6 °F 28.6 °F 35.6 °F 100% 30.28 in 3.0 mi NNW 9.2 mph - N/A Snow Light Snow
12:55 PM 35.6 °F 29.2 °F 35.6 °F 100% 30.29 in 3.0 mi NNW 8.1 mph - N/A Snow Light Snow
1:00 PM 33.8 °F 27.7 °F 33.8 °F 100% 30.29 in 10.0 mi NNW 6.9 mph - N/A   Mostly Cloudy
1:16 PM 33.8 °F 27.7 °F 33.8 °F 100% 30.26 in 6.0 mi NNW 6.9 mph - N/A Snow Light Snow
1:40 PM 35.6 °F 29.2 °F 35.6 °F 100% 30.26 in 10.0 mi NNW 8.1 mph - N/A   Overcast
1:55 PM 33.8 °F 27.0 °F 33.8 °F 100% 30.30 in 10.0 mi NNW 8.1 mph - N/A   Overcast
2:55 PM 35.6 °F 26.2 °F 35.6 °F 100% 30.31 in 10.0 mi NW 15.0 mph - N/A   Overcast
3:32 PM 33.8 °F 26.4 °F 32.0 °F 93% 30.28 in 10.0 mi NNW 9.2 mph - N/A   Overcast
3:55 PM 33.8 °F 25.3 °F 33.8 °F 100% 30.33 in 10.0 mi NNW 11.5 mph - N/A   Overcast
4:55 PM 32.0 °F 23.6 °F 30.2 °F 93% 30.43 in 10.0 mi NNW 10.4 mph - N/A   Mostly Cloudy
5:55 PM 30.2 °F 22.6 °F 26.6 °F 86% 30.36 in 10.0 mi NW 8.1 mph - N/A   Mostly Cloudy
6:55 PM 28.4 °F 20.4 °F 24.8 °F 86% 30.37 in 10.0 mi NNW 8.1 mph - N/A   Mostly Cloudy
7:55 PM 28.4 °F 21.2 °F 24.8 °F 86% 30.38 in 10.0 mi NW 6.9 mph - N/A   Mostly Cloudy
8:55 PM 28.4 °F 19.7 °F 23.0 °F 80% 30.39 in 10.0 mi NW 9.2 mph - N/A   Overcast
9:55 PM 26.6 °F 18.2 °F 21.2 °F 80% 30.40 in 10.0 mi NW 8.1 mph - N/A   Overcast
10:55 PM 21.2 °F 14.9 °F 19.4 °F 93% 30.41 in 10.0 mi WNW 4.6 mph - N/A   Overcast
11:55 PM 17.6 °F 10.7 °F 17.6 °F 100% 30.42 in 10.0 mi WNW 4.6 mph - N/A   Clear